Regional Weather Roundup
Issued by NWS

Home | Current Version | Previous Version | Text Only | Print | Product List | Glossary Off
Versions: 1 2 3 4 5 6 7 8 9 10 11 12 13 14 15 16 17 18 19 20 21 22 23 24 25 26 27 28 29 30 31 32 33 34 35 36 37 38 39 40 41 42 43 44 45 46 47 48 49 50

000
ASUS45 KPSR 281810
RWRAZ

ARIZONA HOURLY REGIONAL WEATHER ROUNDUP
NATIONAL WEATHER SERVICE PHOENIX AZ
1100 AM MST FRI AUG 28 2015

NOTE: FAIR INDICATES FEW OR NO CLOUDS BELOW 12,000 FEET WITH NO
SIGNIFICANT WEATHER AND/OR OBSTRUCTIONS TO VISIBILITY.

AZZ001>003-036-281900-
NORTHWEST ARIZONA

CITY           SKY/WX    TMP DP  RH WIND       PRES   REMARKS
BULLHEAD CITY  SUNNY     99  57  25 SW5       29.90F
KINGMAN        SUNNY     93  51  23 W6        30.11F
6HR MIN TEMP:  68; 6HR MAX TEMP:  94;

$$

AZZ004>008-015-016-018-281900-
NORTH CENTRAL ARIZONA

CITY           SKY/WX    TMP DP  RH WIND       PRES   REMARKS
GRAND CANYON   CLOUDY    80  43  26 NE6       30.36S
6HR MIN TEMP:  47; 6HR MAX TEMP:  80;

WILLIAMS       SUNNY     79  41  25 NW7       30.40F
PRESCOTT       MOSUNNY   85  52  32 CALM      30.23F
6HR MIN TEMP:  59; 6HR MAX TEMP:  85;

FLAGSTAFF      SUNNY     76  51  41 NE10G16   30.39S
6HR MIN TEMP:  47; 6HR MAX TEMP:  76;

PAYSON         SUNNY     84  48  28 VRB6      30.24S
PAGE           SUNNY     86  50  28 N5        30.20S
6HR MIN TEMP:  69; 6HR MAX TEMP:  87;

$$

AZZ009>014-017-281900-
NORTHEAST ARIZONA

CITY           SKY/WX    TMP DP  RH WIND       PRES   REMARKS
WINSLOW        SUNNY     82  56  40 CALM      30.24F
6HR MIN TEMP:  59; 6HR MAX TEMP:  82;

SAINT JOHNS    SUNNY     79  53  40 NW6       30.28F
6HR MIN TEMP:  57; 6HR MAX TEMP:  79;

WINDOW ROCK    SUNNY     81  44  27 VRB3G16   30.34F
6HR MIN TEMP:  49; 6HR MAX TEMP:  82;

SHOW LOW       SUNNY     73  50  43 N9        30.34S
$$

AZZ023-281900-
GREATER PHOENIX AREA

CITY           SKY/WX    TMP DP  RH WIND       PRES   REMARKS
PHOENIX        MOSUNNY   97  61  30 CALM      29.91F
6HR MIN TEMP:  81; 6HR MAX TEMP:  97;

BUCKEYE        SUNNY     95  61  31 E5        29.92F
GLENDALE       SUNNY     95  59  30 NE6       29.93F
LUKE AFB       SUNNY     95  63  34 VRB1      29.91F
6HR MIN TEMP:  78; 6HR MAX TEMP:  95;

DEER VALLEY    SUNNY     95  60  31 SW3       29.93F
6HR MIN TEMP:  81; 6HR MAX TEMP:  95;

SCOTTSDALE     SUNNY     94  60  32 W5        29.96F
6HR MIN TEMP:  79; 6HR MAX TEMP:  94;

MESA-FALCON    SUNNY     95  59  30 W9        29.94F
MESA-GATEWAY   SUNNY     93  59  31 VRB5      29.96F
CHANDLER       MOSUNNY   93  61  33 CALM      29.93F
$$

AZZ027-028-281900-
SOUTHWEST MARICOPA COUNTY AND PINAL COUNTY

CITY           SKY/WX    TMP DP  RH WIND       PRES   REMARKS
CASA GRANDE    SUNNY     95  57  28 CALM      29.94F
6HR MIN TEMP:  75; 6HR MAX TEMP:  95;

GILA BEND      SUNNY     99  62  28 N8        29.89F HX 100
6HR MIN TEMP:  81; 6HR MAX TEMP: 100;

$$

AZZ503-504-507>509-281900-
SOUTHEAST ARIZONA

CITY           SKY/WX    TMP DP  RH WIND       PRES   REMARKS
TUCSON         SUNNY     90  59  35 CALM      30.04F
6HR MIN TEMP:  75; 6HR MAX TEMP:  90;

DAVIS-MONTHAN  SUNNY     89  58  34 W1        30.03S
6HR MIN TEMP:  73; 6HR MAX TEMP:  89;

RYAN FIELD     SUNNY     90  61  37 CALM      30.03F
NOGALES        SUNNY     88  59  37 SW6       30.12S
6HR MIN TEMP:  66; 6HR MAX TEMP:  88;

SIERRA VISTA   SUNNY     84  55  37 VRB2        N/A
6HR MIN TEMP:  69; 6HR MAX TEMP:  81;

DOUGLAS        PTSUNNY   83  56  39 VRB3      30.15S
6HR MIN TEMP:  66; 6HR MAX TEMP:  83;

SAFFORD        SUNNY     85  62  46 NW7       30.06F
6HR MIN TEMP:  66; 6HR MAX TEMP:  85;

$$

AZZ020-021-025-026-031-281900-
SOUTHWEST ARIZONA

CITY           SKY/WX    TMP DP  RH WIND       PRES   REMARKS
YUMA           SUNNY    105  63  25 E3        29.84F HX 108
6HR MIN TEMP:  89; 6HR MAX TEMP: 105;

$$

CAZ031-033-041-043-047-048-061-281900-
SOUTHERN CALIFORNIA

CITY           SKY/WX    TMP DP  RH WIND       PRES   REMARKS
DOWNTOWN L.A.  SUNNY     93  59  31 CALM      29.88F
6HR MIN TEMP:  73; 6HR MAX TEMP:  93;

L.A. AIRPORT   MOSUNNY   82  68  62 W10       29.90S
6HR MIN TEMP:  72; 6HR MAX TEMP:  85;

SAN DIEGO      SUNNY     87  68  52 SW5       29.90S
6HR MIN TEMP:  74; 6HR MAX TEMP:  87;

BURBANK        SUNNY     93  54  26 CALM      29.92S
6HR MIN TEMP:  75; 6HR MAX TEMP:  94;

ONTARIO        MOSUNNY   94  52  24 SW5       29.92F
6HR MIN TEMP:  74; 6HR MAX TEMP:  94;

RIVERSIDE      SUNNY     94  51  23 CALM      29.91F
6HR MIN TEMP:  72; 6HR MAX TEMP:  95;

PALM SPRINGS   MOSUNNY  100  59  25 VRB3      29.88F HX 100
6HR MIN TEMP:  88; 6HR MAX TEMP: 101;

EL CENTRO NAS  SUNNY    105  57  20 N3        29.84S HX 104
6HR MIN TEMP:  83; 6HR MAX TEMP: 105;

IMPERIAL       SUNNY    103  62  26 W5        29.82S HX 105
6HR MIN TEMP:  87; 6HR MAX TEMP: 103;

BLYTHE         SUNNY    102  62  26 E5        29.86F HX 104
6HR MIN TEMP:  86; 6HR MAX TEMP: 102;

NEEDLES        SUNNY    102  57  22 VRB3      29.91F HX 101
6HR MIN TEMP:  87; 6HR MAX TEMP: 103;

$$

NVZ020-UTZ003-281900-
SOUTHERN NEVADA-UTAH

CITY           SKY/WX    TMP DP  RH WIND       PRES   REMARKS
LAS VEGAS      MOSUNNY   96  52  22 VRB5      29.97F
6HR MIN TEMP:  82; 6HR MAX TEMP:  96;

SALT LAKE CITY MOSUNNY   84  44  24 SE7       30.18F
6HR MIN TEMP:  66; 6HR MAX TEMP:  84;

$$

NMZ009-TXZ055-281900-
NEW MEXICO-WEST TEXAS

CITY           SKY/WX    TMP DP  RH WIND       PRES   REMARKS
ALBUQUERQUE    PTSUNNY   81  53  37 VRB5      30.23F
6HR MIN TEMP:  62; 6HR MAX TEMP:  82;

EL PASO        MOSUNNY   89  53  29 VRB3      30.10F
6HR MIN TEMP:  72; 6HR MAX TEMP:  90;

$$


........................KEY........................
SKY/WX - SKY CONDITION/WEATHER
TMP    - TEMPERATURE IN FAHRENHEIT
DP     - DEW POINT IN FAHRENHEIT
RH     - RELATIVE HUMIDITY IN PERCENT
WIND   - DIRECTION AND SPEED IN MILES PER HOUR (MPH)
VRB    - VARIABLE WIND DIRECTION
PRES   - MEAN SEA LEVEL PRESSURE IN INCHES OF MERCURY
         F - FALLING PRESSURE   R - RISING PRESSURE
         S - STEADY PRESSURE
VSB    - VISIBILITY IN MILES
HX     - HEAT INDEX IN FAHRENHEIT
WCI    - WIND CHILL INDEX IN FAHRENHEIT
TC     - TEMPERATURE IN CELSIUS WHICH IS ALSO KNOWN AS
         TEMPERATURE IN CENTIGRADE
AFB    - AIR FORCE BASE
         LUKE AFB IS LUKE AIR FORCE BASE
         DAVIS-MONTHAN IS DAVIS-MONTHAN AIR FORCE BASE
NAS    - NAVAL AIR STATION
         EL CENTRO NAS IS EL CENTRO NAVAL AIR STATION
N/A    - NOT AVAILABLE




USA.gov is the U.S. government's official web portal to all federal, state and local government web resources and services.